Hyannis, MA

7:10 PM EDT on March 27, 2017 (GMT -0400)
Barnstable Municipal-Boardman-Polando Field

Weather History for KHYA - February, 2013

Change the Weather History Date:

Monday, February 11, 2013

  Actual Average Record
Temperature  
Mean Temperature 30 °F -  
Max Temperature 45 °F 37 °F 54 °F (1990)
Min Temperature 14 °F 19 °F -5 °F (1979)
Degree Days  
Heating Degree Days 36    
Moisture  
Dew Point 37 °F    
Average Humidity 96    
Maximum Humidity 100    
Minimum Humidity 84    
Precipitation  
Precipitation 0.39 in - - ()
Sea Level Pressure  
Sea Level Pressure 29.90 in    
Wind  
Wind Speed 6 mph (SSW)    
Max Wind Speed 15 mph    
Max Gust Speed 28 mph    
Visibility 4 miles    
Events Fog , Rain    
Averages and records for this station are not official NWS values.
T = Trace of Precipitation, MM = Missing Value Source: NWS Daily Summary

Daily Weather History Graph

Daily Weather History Graph

Search for Another Location

Airport or City:

Trip Planner

Search our weather history database for the weather conditions in past years. The results will help you decide how hot, cold, wet, or windy it might be!

Date:

Astronomy

Feb. 11, 2013 Rise Set
Actual Time 6:41 AM EST 5:09 PM EST
Civil Twilight 6:12 AM EST 5:38 PM EST
Nautical Twilight 5:40 AM EST 6:11 PM EST
Astronomical Twilight 5:07 AM EST 6:43 PM EST
Moon 7:02 AM EST (2/11) 7:05 PM EST (2/11)
Length of Visible Light 11h 25m
Length of Day
10h 28m
Waxing Crescent, 3% of the Moon is Illuminated
Feb 11
Waxing Crescent
Feb 17
First Quarter
Feb 25
Full
Mar 4
Last Quarter
Mar 11
New

Hourly Weather History & Observations

Time (EST) Temp. Windchill Dew Point Humidity Pressure Visibility Wind Dir Wind Speed Gust Speed Precip Events Conditions
12:56 AM 14.0 °F - 10.9 °F 88% 30.36 in 10.0 mi Calm Calm - N/A   Clear
1:56 AM 15.1 °F - 12.9 °F 91% 30.35 in 10.0 mi Calm Calm - N/A   Clear
2:56 AM 16.0 °F - 14.0 °F 92% 30.30 in 10.0 mi Calm Calm - N/A   Clear
3:56 AM 18.0 °F 12.7 °F 14.0 °F 84% 30.30 in 10.0 mi NE 3.5 mph - N/A   Clear
4:56 AM 21.0 °F - 19.0 °F 92% 30.27 in 10.0 mi Calm Calm - N/A   Clear
5:56 AM 24.1 °F - 21.9 °F 91% 30.27 in 10.0 mi Calm Calm - N/A   Clear
7:56 AM 36.0 °F 33.3 °F 32.0 °F 86% 30.23 in 10.0 mi SSE 3.5 mph - N/A   Overcast
8:56 AM 37.0 °F 32.4 °F 33.1 °F 86% 30.19 in 10.0 mi Variable 5.8 mph - N/A   Overcast
9:56 AM 37.9 °F 31.5 °F 36.0 °F 93% 30.15 in 9.0 mi SSE 9.2 mph - 0.00 in Rain Light Rain
10:56 AM 39.9 °F 32.9 °F 37.0 °F 89% 30.07 in 6.0 mi SSE 11.5 mph 21.9 mph 0.04 in Rain Light Rain
11:56 AM 41.0 °F 35.8 °F 39.0 °F 93% 30.01 in 10.0 mi SSE 8.1 mph 18.4 mph 0.02 in   Overcast
12:48 PM 42.8 °F 35.8 °F 39.2 °F 87% 29.94 in 7.0 mi SSE 13.8 mph 20.7 mph 0.00 in Rain Light Rain
12:56 PM 42.1 °F 36.1 °F 39.9 °F 92% 29.94 in 8.0 mi South 10.4 mph 20.7 mph 0.00 in Rain Light Rain
1:56 PM 43.0 °F 36.4 °F 42.1 °F 97% 29.87 in 3.0 mi South 12.7 mph 26.5 mph 0.04 in Rain Rain
2:56 PM 45.0 °F 38.5 °F 45.0 °F 100% 29.84 in 1.2 mi South 13.8 mph 25.3 mph 0.07 in   Overcast
3:56 PM 45.0 °F 38.2 °F 45.0 °F 100% 29.79 in 2.5 mi South 15.0 mph 27.6 mph 0.07 in Rain Light Rain
4:56 PM 43.0 °F 36.0 °F 43.0 °F 100% 29.75 in 0.5 mi SW 13.8 mph 19.6 mph 0.05 in Fog , Rain Light Rain
5:56 PM 43.0 °F 38.2 °F 43.0 °F 100% 29.72 in 2.0 mi SSW 8.1 mph - 0.07 in Rain Light Rain
6:03 PM 42.8 °F 37.5 °F 42.8 °F 100% 29.72 in 0.8 mi SSW 9.2 mph - 0.00 in   Mist
6:47 PM 42.8 °F 36.6 °F 42.8 °F 100% 29.71 in 0.2 mi SW 11.5 mph - 0.02 in Fog , Rain Rain
6:56 PM 42.1 °F 35.7 °F 42.1 °F 100% 29.71 in 0.2 mi SW 11.5 mph - 0.02 in Fog , Rain Light Rain
7:07 PM 44.6 °F 40.2 °F 44.6 °F 100% 29.68 in 0.5 mi SW 8.1 mph - 0.01 in Fog , Rain Light Rain
7:21 PM 44.6 °F 39.2 °F 44.6 °F 100% 29.68 in 0.5 mi SW 10.4 mph - 0.01 in Fog Fog
7:32 PM 42.8 °F 36.2 °F 42.8 °F 100% 29.68 in 0.2 mi SW 12.7 mph - 0.01 in Fog Fog
7:56 PM 45.0 °F 38.2 °F 45.0 °F 100% 29.67 in 0.2 mi WSW 15.0 mph - 0.01 in Fog Fog
8:04 PM 44.6 °F 38.1 °F 44.6 °F 100% 29.66 in 0.5 mi WSW 13.8 mph - N/A Fog Fog
8:36 PM 44.6 °F 38.8 °F 44.6 °F 100% 29.65 in 0.2 mi SW 11.5 mph - N/A Fog Fog
8:56 PM 45.0 °F 39.3 °F 45.0 °F 100% 29.64 in 0.2 mi WSW 11.5 mph - N/A Fog Fog
9:56 PM 44.1 °F 39.5 °F 44.1 °F 100% 29.63 in 0.2 mi SSW 8.1 mph - N/A Fog Fog
10:56 PM 43.0 °F 37.7 °F 43.0 °F 100% 29.60 in 0.2 mi SW 9.2 mph - N/A Fog Fog
11:56 PM 43.0 °F 38.2 °F 43.0 °F 100% 29.60 in 0.2 mi WSW 8.1 mph - N/A Fog Fog